Back to catalog

IRIDIUM 33 DEB

AlivePO
NORAD 33953·DEBRIS·🇺🇸 United States

Launched Sep 14, 1997 from Baikonur Cosmodrome

Loading…

Next Passes (next 24 hours)

TLE

FreshSource: Space-Track

Epoch: Sep 14, 2026, 02:17 UTC

1 33953U 97051BN  26257.09556339  .00002016  00000-0  43814-3 0  9999
2 33953  86.3818 294.0501 0013970 248.1667 140.5900 14.57544044923128

Track IRIDIUM 33 DEB in real time with AllMySat

Download on the App Store